Weather History for Bullsbrook Pearce, WE

Change the Weather History Date:

Wednesday, February 13, 2013

  Actual Average (YPPH) Record (YPPH)
Temperature  
Mean Temperature 88 °F -  
Max Temperature 107 °F 86 °F 102 °F (2013)
Min Temperature 68 °F 62 °F 55 °F (2007)
Cooling Degree Days 22    
Growing Degree Days 38 (Base 50)    
Moisture  
Dew Point 55 °F    
Average Humidity 38    
Maximum Humidity 78    
Minimum Humidity 8    
Precipitation  
Precipitation 0.00 in - - ()
Sea Level Pressure  
Sea Level Pressure 29.85 in    
Wind  
Wind Speed 6 mph ()    
Max Wind Speed 22 mph    
Max Gust Speed -    
Visibility 8.0 miles    
Events      
Averages and records for this station are not official NWS values.
T = Trace of Precipitation, MM = Missing Value Source: Averaged Metar Reports

Daily Weather History Graph

Daily Weather History Graph

Search for Another Location

Airport:

Trip Planner

Search our weather history database for the weather conditions in past years. The results will help you decide how hot, cold, wet, or windy it might be!

Date:

Astronomy

Feb. 13, 2013 Rise Set
Actual Time 5:52 AM AWST 7:07 PM AWST
Civil Twilight 5:26 AM AWST 7:33 PM AWST
Nautical Twilight 4:56 AM AWST 8:03 PM AWST
Astronomical Twilight 4:24 AM AWST 8:34 PM AWST
Moon 8:43 AM AWST (2/13) 8:42 PM AWST (2/13)
Length of Visible Light 14h 06m
Length of Day
13h 15m
Waxing Crescent, 10% of the Moon is Illuminated
Feb 13
Waxing Crescent
Feb 18
First Quarter
Feb 26
Full
Mar 5
Last Quarter
Mar 12
New

Hourly Weather History & Observations

Time (AWST) Temp. Heat Index Dew Point Humidity Pressure Visibility Wind Dir Wind Speed Gust Speed Precip Events Conditions
12:00 AM 75 °F - 56 °F 41% 29.89 in - Calm Calm - -  
12:00 AM 75.2 °F - 55.4 °F 50% 29.89 in - Calm Calm - N/A   Clear
1:00 AM 71.6 °F - 57.2 °F 60% 29.86 in 6.2 mi North 8.1 mph - N/A   Unknown
1:32 AM 73.4 °F - 59.0 °F 61% 29.89 in 6.2 mi NNW 21.9 mph - N/A   Unknown
2:00 AM 77.0 °F - 57.2 °F 50% 29.86 in 6.2 mi NNE 6.9 mph - N/A   Unknown
3:00 AM 75 °F - 57 °F 43% 29.86 in - NNE 4.6 mph - -  
3:00 AM 75.2 °F - 57.2 °F 53% 29.86 in 6.2 mi NNE 4.6 mph - N/A   Unknown
4:00 AM 71.6 °F - 55.4 °F 57% 29.86 in 6.2 mi North 4.6 mph - N/A   Unknown
5:00 AM 69.8 °F - 57.2 °F 64% 29.86 in 6.2 mi Calm Calm - N/A   Unknown
5:25 AM 78.8 °F - 57.2 °F 47% 29.86 in 6.2 mi East 4.6 mph - N/A   Unknown
6:00 AM 77 °F - 54 °F 34% 29.88 in - Calm Calm - -  
6:00 AM 77.0 °F - 53.6 °F 44% 29.86 in 6.2 mi Calm Calm - N/A   Unknown
7:00 AM 75.2 °F - 55.4 °F 50% 29.89 in - NE 1.2 mph - N/A   Clear
7:23 AM 84.2 °F 83.0 °F 55.4 °F 37% 29.89 in - ENE 4.6 mph - N/A   Clear
8:00 AM 87.8 °F 85.7 °F 53.6 °F 31% 29.89 in - ENE 8.1 mph - N/A   Clear
9:00 AM 92 °F - 52 °F 16% 29.89 in 19 mi NE 3.5 mph - -   Partly Cloudy
9:00 AM 93.2 °F - 51.8 °F 24% 29.89 in - NE 3.5 mph - N/A   Clear
10:00 AM 98.6 °F - 50.0 °F 19% 29.86 in - NE 8.1 mph - N/A   Clear
11:00 AM 102.2 °F - 46.4 °F 15% 29.86 in - NNE 8.1 mph - N/A   Clear
12:00 PM 102 °F - 46 °F 8% 29.83 in - NNW 6.9 mph - -  
12:00 PM 102.2 °F - 46.4 °F 15% 29.83 in - NNW 6.9 mph - N/A   Clear
12:12 PM 105.8 °F - 44.6 °F 13% 29.83 in 6.2 mi NNW 17.3 mph - N/A   Unknown
1:00 PM 100.4 °F - 50.0 °F 18% 29.80 in 6.2 mi WSW 17.3 mph - N/A   Unknown
2:00 PM 102.2 °F - 51.8 °F 18% 29.80 in 6.2 mi WSW 16.1 mph - N/A   Unknown
3:00 PM 101 °F - 55 °F 13% 29.79 in 19 mi WSW 16.1 mph - -   Partly Cloudy
3:00 PM 100.4 °F 98.8 °F 55.4 °F 22% 29.80 in - WSW 16.1 mph - N/A   Clear
4:00 PM 96.8 °F - 51.8 °F 22% 29.80 in - WSW 13.8 mph - N/A   Clear
5:00 PM 93.2 °F - 51.8 °F 24% 29.80 in - SW 16.1 mph - N/A   Clear
6:00 PM 91 °F - 53 °F 18% 29.80 in - SW 12.7 mph - -  
6:00 PM 91.4 °F 89.1 °F 53.6 °F 28% 29.80 in 6.2 mi SW 12.7 mph - N/A   Unknown
7:00 PM 87.8 °F 86.1 °F 55.4 °F 33% 29.80 in - SW 9.2 mph - N/A   Clear
8:00 PM 80.6 °F 81.5 °F 60.8 °F 51% 29.83 in - West 5.8 mph - N/A   Clear
9:00 PM 78 °F - 65 °F 57% 29.84 in - West 4.6 mph - -  
9:00 PM 77.0 °F - 66.2 °F 69% 29.83 in - West 4.6 mph - N/A   Clear
10:00 PM 75.2 °F - 66.2 °F 73% 29.86 in - WNW 3.5 mph - N/A   Clear
11:00 PM 73.4 °F - 66.2 °F 78% 29.83 in - NNW 4.6 mph - N/A   Clear